This is the latest recevied weather packets stored in our database for station/object KO6HRZ. If no packets are shown the sender has not sent any weather packets the latest 10 day(s).
| Time | Temp. | Humidity | Pressure | Rain* | Wind** | Luminosity | Snow |
|---|---|---|---|---|---|---|---|
| 1777017195 | 12.22° C | 82% | 1015.2 hPa | 0 mm | - | 0 W/m² | - |
| 1777016594 | 12.22° C | 82% | 1015.1 hPa | 0 mm | - | 0 W/m² | - |
| 1777015993 | 12.78° C | 81% | 1015.2 hPa | 0 mm | - | 0 W/m² | - |
| 1777015392 | 12.78° C | 81% | 1015.2 hPa | 0 mm | - | 0 W/m² | - |
| 1777014789 | 12.78° C | 79% | 1015.1 hPa | 0 mm | - | 0 W/m² | - |
| 1777014184 | 12.78° C | 77% | 1015.2 hPa | 0 mm | - | 0 W/m² | - |
| 1777013583 | 12.78° C | 76% | 1015.1 hPa | 0 mm | - | 0 W/m² | - |
| 1777012984 | 13.33° C | 75% | 1015 hPa | 0 mm | - | 0 W/m² | - |
| 1777012382 | 13.33° C | 73% | 1015.2 hPa | 0 mm | - | 0 W/m² | - |
| 1777011780 | 13.89° C | 72% | 1015 hPa | 0 mm | - | 0 W/m² | - |
| 1777011179 | 13.89° C | 70% | 1015.2 hPa | 0 mm | - | 0 W/m² | - |
| 1777010578 | 13.89° C | 69% | 1015.2 hPa | 0 mm | - | 0 W/m² | - |
| 1777009977 | 14.44° C | 67% | 1015.6 hPa | 0 mm | - | 0 W/m² | - |
| 1777009376 | 14.44° C | 65% | 1015.7 hPa | 0 mm | - | 0 W/m² | - |
| 1777008775 | 14.44° C | 63% | 1015.6 hPa | 0 mm | - | 0 W/m² | - |
| 1777008174 | 15° C | 63% | 1015.7 hPa | 0 mm | - | 0 W/m² | - |
| 1777007574 | 15° C | 63% | 1015.5 hPa | 0 mm | - | 0 W/m² | - |
| 1777006974 | 15° C | 61% | 1015.5 hPa | 0 mm | - | 0 W/m² | - |
| 1777006372 | 15.56° C | 61% | 1015.7 hPa | 0 mm | - | 0 W/m² | - |
| 1777005771 | 15.56° C | 59% | 1015.5 hPa | 0 mm | - | 0 W/m² | - |
| 1777005168 | 16.11° C | 62% | 1015.6 hPa | 0 mm | - | 0 W/m² | - |
| 1777004565 | 16.11° C | 62% | 1015.4 hPa | 0 mm | - | 0 W/m² | - |
| 1777003965 | 16.67° C | 63% | 1015.3 hPa | 0 mm | - | 0 W/m² | - |
| 1777003365 | 16.67° C | 65% | 1015.2 hPa | 0 mm | - | 0 W/m² | - |
| 1777002765 | 16.67° C | 66% | 1015.3 hPa | 0 mm | - | 0 W/m² | - |
* Rain latest hour (hover to see other rain measurements)
** Current wind speed in m/s (hover to see current wind gust speed)